Fes-Sais, Morocco

2:28 PM WEST on October 20, 2017 (GMT +0100)
Fes-Sais

Weather History for GMFF - October, 2012

Change the Weather History Date:

Wednesday, October 24, 2012

  Actual Average Record
Temperature  
Mean Temperature 72 °F -  
Max Temperature 83 °F 67 °F 96 °F (2004)
Min Temperature 60 °F 47 °F 48 °F (1998)
Cooling Degree Days 6    
Growing Degree Days 22 (Base 50)    
Moisture  
Dew Point 52 °F    
Average Humidity 51    
Maximum Humidity 82    
Minimum Humidity 26    
Precipitation  
Precipitation 0.00 in 0.11 in - ()
Sea Level Pressure  
Sea Level Pressure 29.98 in    
Wind  
Wind Speed 7 mph ()    
Max Wind Speed 14 mph    
Max Gust Speed -    
Visibility 6.1 miles    
Events      
Averages and records for this station are not official NWS values.
T = Trace of Precipitation, MM = Missing Value Source: Averaged Metar Reports

Daily Weather History Graph

Daily Weather History Graph

Search for Another Location

Airport or City:

Trip Planner

Search our weather history database for the weather conditions in past years. The results will help you decide how hot, cold, wet, or windy it might be!

Date:

Astronomy

Oct. 24, 2012 Rise Set
Actual Time 6:32 AM WET 5:35 PM WET
Civil Twilight 6:07 AM WET 6:00 PM WET
Nautical Twilight 5:37 AM WET 6:29 PM WET
Astronomical Twilight 5:08 AM WET 6:58 PM WET
Moon 2:31 PM WET (10/24) 1:26 AM WET (10/24)
Length of Visible Light 11h 53m
Length of Day
11h 02m
Waxing Gibbous, 74% of the Moon is Illuminated
Oct 24
Waxing Gibbous
Oct 29
Full
Nov 7
Last Quarter
Nov 13
New
Nov 20
First Quarter

Hourly Weather History & Observations

Time (WET) Temp. Dew Point Humidity Pressure Visibility Wind Dir Wind Speed Gust Speed Precip Events Conditions
12:00 AM 64 °F 50 °F 50% 29.95 in 6 mi East 9.2 mph - -   Clear
12:00 AM 64.4 °F 50.0 °F 59% 30.01 in - East 9.2 mph - N/A   Clear
2:00 AM 64.4 °F 50.0 °F 59% 30.04 in - North 6.9 mph - N/A   Clear
3:00 AM 62.6 °F 51.8 °F 68% 29.98 in - South 6.9 mph - N/A   Clear
4:00 AM 64.4 °F 51.8 °F 64% 29.98 in - SSE 9.2 mph - N/A   Clear
5:00 AM 60.8 °F 51.8 °F 72% 30.01 in - SW 6.9 mph - N/A   Clear
6:00 AM 67 °F 50 °F 44% 29.96 in 6 mi SW 9.2 mph - -   Clear
6:00 AM 66.2 °F 50.0 °F 56% 30.01 in - SW 9.2 mph - N/A   Clear
7:00 AM 66.2 °F 50.0 °F 56% 30.01 in - WSW 9.2 mph - N/A   Clear
8:00 AM 69.8 °F 51.8 °F 53% 30.04 in 6.2 mi SW 9.2 mph - N/A   Scattered Clouds
9:00 AM 75 °F 51 °F 32% 29.96 in 6 mi NE 2.3 mph - -   Scattered Clouds
9:00 AM 75.2 °F 50.0 °F 41% 30.04 in 6.2 mi NE 2.3 mph - N/A   Mostly Cloudy
10:00 AM 77.0 °F 51.8 °F 41% 30.04 in 6.2 mi NE 4.6 mph - N/A   Mostly Cloudy
11:00 AM 78.8 °F 53.6 °F 42% 30.04 in 6.2 mi NE 6.9 mph - N/A   Mostly Cloudy
12:00 PM 80 °F 51 °F 26% 29.91 in 6 mi ENE 6.9 mph - -   Scattered Clouds
12:00 PM 80.6 °F 50.0 °F 34% 30.01 in 6.2 mi ENE 6.9 mph - N/A   Mostly Cloudy
1:00 PM 82.4 °F 50.0 °F 32% 29.98 in 6.2 mi NE 4.6 mph - N/A   Mostly Cloudy
2:00 PM 84.2 °F 51.8 °F 33% 29.98 in 6.2 mi North 4.6 mph - N/A   Mostly Cloudy
3:00 PM 81 °F 52 °F 26% 29.85 in 6 mi NNW 6.9 mph - -   Partly Cloudy
3:00 PM 80.6 °F 51.8 °F 37% - 6.2 mi NNW 6.9 mph - N/A   Scattered Clouds
4:00 PM 80.6 °F 48.2 °F 32% 29.95 in 6.2 mi NNW 6.9 mph - N/A   Mostly Cloudy
5:00 PM 75.2 °F 50.0 °F 41% 29.95 in - NNW 9.2 mph - N/A   Mostly Cloudy
6:00 PM 72 °F 54 °F 42% 29.88 in 6 mi NNW 13.8 mph - -   Partly Cloudy
6:00 PM 71.6 °F 53.6 °F 53% 29.95 in 6.2 mi NNW 13.8 mph - N/A   Mostly Cloudy
8:00 PM 66.2 °F 57.2 °F 73% 30.01 in 6.2 mi WSW 6.9 mph - N/A   Scattered Clouds
9:00 PM 65 °F 57 °F 69% 29.96 in - WNW 4.6 mph - -   Partly Cloudy
9:00 PM 66.2 °F 57.2 °F 73% 30.01 in 6.2 mi WNW 4.6 mph - N/A   Scattered Clouds
10:00 PM 62.6 °F 57.2 °F 82% 30.01 in 6.2 mi SW 4.6 mph - N/A   Scattered Clouds
11:00 PM 62.6 °F 57.2 °F 82% 29.98 in 6.2 mi SW 4.6 mph - N/A   Scattered Clouds